Location: Goll?ig?dem
(16.6773°N, 80.7332°E)
Time: 17:14:43
(UTC+00:00)

SJ 16-02 - Pass Details

Date: 19 May 2025
Orbit: 587 x 597 km, 75.0° (Epoch: 13 June)

Event Time Altitude Azimuth Distance (km) Brightness Sun altitude
Exits shadow 23:34:54 - 211° (SSW) 2,437 3.9 -7.5°
Reaches altitude 10° 23:36:17 10° 217° (SW) 1,912 3.3 -7.2°
Maximum altitude 23:40:12 36° 284° (WNW) 938 1.9 -6.3°
Drops below altitude 10° 23:44:10 10° 352° (N) 1,921 4.1 -5.4°
Sets 23:46:31 0° 1° (N) 2,825 5.1 -4.9°
